This is the latest recevied weather packets stored in our database for station/object SR9WXM. If no packets are shown the sender has not sent any weather packets the latest 1 day(s).
| Time | Temp. | Humidity | Pressure | Rain* | Wind** | Luminosity | Snow |
|---|---|---|---|---|---|---|---|
| 1777965458 | 13.89° C | 100% | 0 hPa | - | 6.26 m/s, 195° | - | - |
| 1777965218 | 13.89° C | 100% | 0 hPa | - | 5.36 m/s, 193° | - | - |
| 1777964978 | 13.89° C | 100% | 0 hPa | - | 5.81 m/s, 196° | - | - |
| 1777964738 | 13.89° C | 100% | 0 hPa | - | 6.71 m/s, 208° | - | - |
| 1777964497 | 13.89° C | 100% | 0 hPa | - | 5.81 m/s, 206° | - | - |
| 1777964254 | 13.89° C | 100% | 0 hPa | - | 4.92 m/s, 209° | - | - |
| 1777964015 | 13.89° C | 100% | 0 hPa | - | 5.81 m/s, 204° | - | - |
| 1777963775 | 13.89° C | 100% | 0 hPa | - | 5.81 m/s, 209° | - | - |
| 1777963535 | 13.89° C | 100% | 0 hPa | - | 5.81 m/s, 208° | - | - |
| 1777963293 | 13.33° C | 100% | 0 hPa | - | 4.02 m/s, 201° | - | - |
| 1777963052 | 13.33° C | 100% | 0 hPa | - | 5.36 m/s, 198° | - | - |
| 1777962812 | 13.33° C | 100% | 0 hPa | - | 5.36 m/s, 200° | - | - |
| 1777962572 | 13.33° C | 100% | 0 hPa | - | 5.36 m/s, 217° | - | - |
| 1777962325 | 12.78° C | 100% | 0 hPa | - | 5.81 m/s, 207° | - | - |
| 1777962082 | 12.78° C | 100% | 0 hPa | - | 4.92 m/s, 201° | - | - |
| 1777961842 | 12.78° C | 100% | 0 hPa | - | 5.36 m/s, 204° | - | - |
| 1777961602 | 12.78° C | 100% | 0 hPa | - | 5.36 m/s, 212° | - | - |
| 1777961362 | 12.78° C | 100% | 0 hPa | - | 5.36 m/s, 210° | - | - |
| 1777961122 | 12.78° C | 100% | 0 hPa | - | 4.47 m/s, 216° | - | - |
| 1777960880 | 12.78° C | 100% | 0 hPa | - | 5.36 m/s, 210° | - | - |
| 1777960640 | 12.22° C | 100% | 0 hPa | - | 4.92 m/s, 201° | - | - |
| 1777960400 | 12.22° C | 100% | 0 hPa | - | 4.92 m/s, 203° | - | - |
| 1777960160 | 12.22° C | 100% | 0 hPa | - | 4.92 m/s, 205° | - | - |
| 1777959920 | 12.22° C | 100% | 0 hPa | - | 4.92 m/s, 194° | - | - |
| 1777959679 | 12.22° C | 100% | 0 hPa | - | 5.81 m/s, 202° | - | - |
* Rain since midnight (hover to see other rain measurements)
** Current wind speed in m/s (hover to see current wind gust speed)